User: anonymous   Login
Location: Buckhorn Peak
(37.6641°N, 120.1241°W)
Time: 05:12:49
(UTC+00:00)
Language:

BlueWalker 3 - Orbit

View from above orbital plane
View from above orbital plane
View from above satellite
View from above satellite

Ground track
Ground track

The orbit is defined by the following mean orbital elements,

1 53807U          26046.88689772 +.00000000 +00000-0 +17534-3 0 00002
2 53807  53.2280 242.8263 0007402 149.8746 210.2686 15.36791468    09
Epoch (UTC): 15 February 2026 21:17:07
Eccentricity: 0.0007402
inclination: 53.2280°
perigee height: 451 km
apogee height: 461 km
right ascension of ascending node: 242.8263°
argument of perigee: 149.8746°
revolutions per day: 15.36791468
mean anomaly at epoch: 210.2686°

The dashed part of the orbit path shows where the satellite is in the earth's shadow,  

DLR